This demonstration page uses our WeatherBlox Daily Observations layout. Learn more.

Left ArrowRight Arrow

Hourly Observations for April 6, 2016

Temp ( °F °C ) Dew Point ( °F °C ) Humidity (%) Winds ( mph kmh ) Pressure ( in mb ) Visibility ( mi km ) Precip ( " mm )
12:53 am 00:53 Clear 72 22.2 36 2.2 27 27 NNW 9 15 30.17 1022 10 16 0.00 0.00
1:53 am 01:53 Clear 71 21.7 36 2.2 28 28 N 9 15 30.18 1022 10 16 0.00 0.00
2:53 am 02:53 Clear 70 21.1 36 2.2 29 29 NNW 8 13 30.16 1022 10 16 0.00 0.00
3:53 am 03:53 Clear 70 21.1 35 1.7 28 28 NNW 8 13 30.16 1021 10 16 0.00 0.00
4:53 am 04:53 Clear 70 21.1 34 1.1 27 27 NNW 8 13 30.15 1021 10 16 0.00 0.00
5:53 am 05:53 Clear 70 21.1 33 0.6 26 26 NNW 8 13 30.16 1021 10 16 0.00 0.00
6:53 am 06:53 Sunny 69 20.6 34 1.1 27 27 N 8 13 30.16 1022 10 16 0.00 0.00
7:53 am 07:53 Sunny 71 21.7 35 1.7 27 27 N 8 13 30.18 1022 10 16 0.00 0.00
8:53 am 08:53 Sunny 74 23.3 38 3.3 27 27 N 7 11 30.19 1022 10 16 0.00 0.00
9:53 am 09:53 Sunny 78 25.6 38 3.3 24 24 N 8 13 30.18 1022 10 16 0.00 0.00
10:53 am 10:53 Sunny 82 27.8 38 3.3 21 21 N 12 19 30.17 1022 10 16 0.00 0.00
11:53 am 11:53 Sunny 84 28.9 39 3.9 20 20 NNE 10 17 30.14 1021 10 16 0.00 0.00
12:53 pm 12:53 Sunny 87 30.6 38 3.3 18 18 N 10 17 30.12 1020 10 16 0.00 0.00
1:53 pm 13:53 Sunny 89 31.7 37 2.8 16 16 N 9 15 30.09 1019 10 16 0.00 0.00
2:53 pm 14:53 Sunny 91 32.8 38 3.3 15 15 Calm 30.05 1018 10 16 0.00 0.00
3:53 pm 15:53 Sunny 92 33.3 36 2.2 14 14 WNW 5 7 30.01 1016 10 16 0.00 0.00
4:53 pm 16:53 Sunny 92 33.3 38 3.3 15 15 W 8 13 29.99 1016 8 13 0.00 0.00
5:53 pm 17:53 Sunny 92 33.3 40 4.4 16 16 W 5 7 29.96 1015 10 16 0.00 0.00
6:53 pm 18:53 Sunny 89 31.7 45 7.2 22 22 WSW 3 6 29.94 1014 10 16 0.00 0.00
7:53 pm 19:53 Clear 80 26.7 50 10 35 35 SE 3 6 29.93 1014 10 16 0.00 0.00
8:53 pm 20:53 Clear 72 22.2 53 11.7 52 52 Calm 29.94 1014 10 16 0.00 0.00
9:53 pm 21:53 Clear 69 20.6 53 11.7 57 57 NNE 3 6 29.95 1014 10 16 0.00 0.00
10:53 pm 22:53 Clear 66 18.9 53 11.7 63 63 Calm 29.95 1014 10 16 0.00 0.00
11:53 pm 23:53 Clear 61 16.1 52 11.1 72 72 Calm 29.96 1014 10 16 0.00 0.00

Powered by AerisWeather